Herzlich willkommen!

Am freundlichen Bodensee-Flugplatz zwischen Schwarzwald, Rhein und Alpen.

Aktuelles

05.07.2018
Neue Sichtflugkarte EDTZ
Bitte beachten Sie die neuen An- und Abflugverfahren, veröffentlicht am 5. Juli 2018. Der Gegenanflug Piste 30 wurde verlängert bis kurz vor die neue Rheinbrücke. Direktabflüge Piste 12 sind nicht mehr gestattet. Abdrehen nach Norden bei Abflügen nach Westen erst zwischen Hegne und Allensbach. Hubschrauberstart vom jeweiligen RWY-Beginn mit maximaler Steigrate. Bei Direktanflug/ Direktabflug sind Flüge unterhalb 2000 ft AGL so kurz wie möglich zu halten. Um Beschwerden zu vermeiden, bitten wir Sie, sich an die veröffentlichten Verfahren zu halten.
— Flugleitung EDTZ
12.08.2018
NEUE FREQUENZ 124,355
Ab sofort hat Konstanz Info die neue 8,33 kHz Frequenz 124,355
— Flugleitung EDTZ

Live am Platz

Die Bilder unserer Webcams werden alle 5 Minuten aktualisiert.

Sonnenaufgang:

05:45 UTC / 07:45 Lokal

Sonnenuntergang:

16:31 UTC / 18:31 Lokal

METAR (18.10.2018 01:50 UTC):

EDNY 172350Z AUTO 06004KT 9999 // FEW250/// 09/07 Q1018
VFR

TAF (18.10.2018 01:00 UTC):

TAF EDNY 172300Z 1800/1824 04006KT CAVOK BECMG 1808/1810 04011KT BECMG 1815/1818 04006KT

Alle Angaben unverbindlich und ohne Gewähr. Zeiten genähert.

Für den Verkehrslandeplatz Konstanz werden keine offiziellen Wetterinformationen herausgegeben. Daher werden zur Orientierung Daten des nahegelegenen Flughafens Friedrichshafen dargestellt.